Location: Geçitköy
(36.7327°N, 29.8010°E)
Time: 18:39:23
(UTC+00:00)

Cosmos 2263 - Pass Details

Date: 12 January 2026
Orbit: 830 x 864 km, 70.9° (Epoch: 10 February)

Event Time Altitude Azimuth Distance (km) Brightness Sun altitude
Rises 15:54:09 0° 339° (NNW) 3,420 7.4 -9.8°
Reaches altitude 10° 15:56:38 10° 341° (NNW) 2,475 6.6 -10.3°
Maximum altitude 16:02:19 77° 68° (ENE) 867 4.1 -11.4°
Drops below altitude 10° 16:07:55 10° 154° (SSE) 2,439 6.5 -12.5°
Sets 16:10:20 0° 156° (SSE) 3,365 7.3 -12.9°
